Regional Weather Roundup
Issued by NWS

Home | Current Version | Previous Version | Text Only | Print | Product List | Glossary Off
Versions: 1 2 3 4 5 6 7 8 9 10 11 12 13 14 15 16 17 18 19 20 21 22 23 24 25 26 27 28 29 30 31 32 33 34 35 36 37 38 39 40 41 42 43 44 45 46 47 48 49 50

000
ASUS43 KLMK 100310
RWRKY
KENTUCKY REGIONAL WEATHER ROUNDUP
NATIONAL WEATHER SERVICE LOUISVILLE KY
1100 PM EDT WED JUL 09 2014

NOTE "FAIR" INDICATES FEW OR NO CLOUDS BELOW 12,000 FEET
WITH NO SIGNIFICANT WEATHER AND/OR OBSTRUCTIONS TO VISIBILITY.

KYZ001>023-026-027-061>063-070>075-100400-
WESTERN AND SOUTH CENTRAL KENTUCKY

CITY           SKY/WX    TMP DP  RH WIND       PRES   REMARKS
PADUCAH        CLEAR     71  66  84 CALM      30.00R
HENDERSON      MOCLDY    73  66  78 CALM      30.00R
OWENSBORO      PTCLDY    76  63  64 CALM      30.01R
HOPKINSVILLE   CLEAR     72  63  72 CALM      30.02R
BOWLING GREEN  CLEAR     71  62  73 CALM      30.02R
GLASGOW        CLEAR     67  61  81 CALM      30.03R
$$

KYZ024-025-028>034-038-045-046-053-100400-
NORTH CENTRAL KENTUCKY

CITY           SKY/WX    TMP DP  RH WIND       PRES   REMARKS
LOUISVILLE/SDF PTCLDY    79  60  52 W5        30.01R
LOUISVILLE/LOU MOCLDY    77  60  55 CALM      30.02R
FORT KNOX      MOCLDY    68  65  88 CALM      30.02R
$$

KYZ035>037-039>044-047>052-055>060-089>105-100400-
NORTHEAST KENTUCKY

CITY           SKY/WX    TMP DP  RH WIND       PRES   REMARKS
LEXINGTON      CLEAR     70  60  70 CALM      30.03R
COVINGTON      PTCLDY    70  59  68 CALM      30.02R
FRANKFORT      CLEAR     70  61  73 CALM      30.02R
$$

KYZ054-064>069-076>088-106>120-100400-
SOUTHEAST KENTUCKY

CITY           SKY/WX    TMP DP  RH WIND       PRES   REMARKS
JACKSON        CLEAR     75  59  57 CALM      30.04R
LONDON         CLEAR     71  63  75 CALM      30.05R
SOMERSET       CLEAR     68  61  77 CALM      30.05R
MIDDLESBORO    PTCLDY    71  68  91 CALM      30.06R
MONTICELLO     CLEAR     65  64  96 CALM      30.06R
$$




USA.gov is the U.S. government's official web portal to all federal, state and local government web resources and services.